Hovedside
METAR-TAF:

METAR-TAF

Lufthavner :

Rome State Airport

Rome, Oregon, USA

breddegrad: 42-35-26N, lengdegrad: 117-51-52W, høyde over havet: 1234 m

Gjeldene værobservasjon

Denne rapporten ble laget for 6 minutter siden, klokken 16:52 UTC
Vind 7 kt fra Nord-nordøst, skiftende mellom Nord og Øst-nordøst
Temperatur 13°C
Luftfuktighet 30%
Trykk 1017 hPa

METAR: KREO 091652Z AUTO 03007KT 360V060 13/M04 A3004 RMK AO1 SLP169 T01281044

Tid: 10:58 (16:58 UTC)


TAF: fraværende

Værobservasjoner og værvarsel for over 4000 flyplasser (METAR- og TAF-rapporter).

Tilgjengelige stasjoner er representert av de røde og gule prikkene på kartet.

Hold musepekeren over prikken for å se navnet på stasjonen.

Klikk så for å se værobservasjoner og -varsler.

For å forandre kartet kan du klikke på den grønne knappen med svart kryss for å zoome inn, på den grønne knappen med strek for å zoome ut, eller på de grønne pilene for å se tilstøtende kart.


METAR-TAF: